Regional Weather Roundup
Issued by NWS

Home | Current Version | Previous Version | Graphics & Text | Print | Product List | Glossary Off
Versions: 1 2 3 4 5 6 7 8 9 10 11 12 13 14 15 16 17 18 19 20 21 22 23 24 25 26 27 28 29 30 31 32 33 34 35 36 37 38 39 40 41 42 43 44 45 46 47 48 49 50

000
ASUS43 KMKX 061321
RWRWI

WISCONSIN REGIONAL WEATHER ROUNDUP
NATIONAL WEATHER SERVICE MILWAUKEE/SULLIVAN WI
800 AM CDT MON JUL 06 2015

NOTE: "FAIR" INDICATES FEW OR NO CLOUDS BELOW 12,000 FEET WITH NO
SIGNIFICANT WEATHER AND/OR OBSTRUCTIONS TO VISIBILITY.

WIZ001-002-006>008-014>016-023>028-061400-
NORTHWEST WISCONSIN

CITY           SKY/WX    TMP DP  RH WIND       PRES   REMARKS
SUPERIOR ARPT  RAIN      64  63  95 N10       29.85R
ASHLAND        LGT RAIN  67  67 100 NW3       29.85S FOG
HAYWARD        LGT RAIN  67  65  93 CALM      29.85S FOG
SIREN          RAIN      67  66  97 CALM      29.84R
CUMBERLAND     RAIN      64  63  94 SE3       29.83F
RICE LAKE      LGT RAIN  67  66  95 CALM      29.84F
CHETEK         RAIN      67  66  97 NE6       29.83F
LADYSMITH      LGT RAIN  67  66  96 E8        29.85F
EAU CLAIRE     LGT RAIN  69  67  93 S5        29.82S
MENOMONIE      RAIN      69  68  99 CALM      29.83F
NEW RICHMOND   RAIN      67  67 100 E5        29.80F
OSCEOLA        LGT RAIN  68  68 100 SE7       29.82F
$$

WIZ003>005-009-010-017-018-061400-
NORTH CENTRAL WISCONSIN

CITY           SKY/WX    TMP DP  RH WIND       PRES   REMARKS
MANITOWISH WTR HVY RAIN  66  66 100 CALM      29.86F
ARBOR VITAE    RAIN      67  65  94 CALM      29.87F
WOODRUFF       RAIN      67  65  94 CALM      29.87F
RHINELANDER    TSTM      67  64  90 SW12      29.92R FOG
EAGLE RIVER    CLOUDY    68  64  88 CALM      29.87F FOG
LAND O LAKES   CLOUDY    68  65  88 CALM      29.89F FOG
PHILLIPS       RAIN      66  66 100 CALM      29.87R
TOMAHAWK       HVY RAIN  65  64  93 CALM      29.89R VSB 1/2
MEDFORD        RAIN      65  65  99 NE3       29.88S
MERRILL        TSTM      66  66 100 CALM      29.89R
$$

WIZ029-030-035-036-043>047-061400-
CENTRAL WISCONSIN

CITY           SKY/WX    TMP DP  RH WIND       PRES   REMARKS
WAUSAU         CLOUDY    69  64  84 S8        29.86R HAZE
MOSINEE        LGT RAIN  68  66  94 S13       29.88S
MARSHFIELD     LGT RAIN  69  64  84 S7        29.86S
STEVENS POINT  CLOUDY    68  64  86 S8        29.86F FOG
WAUPACA        CLOUDY    70  67  90 S7        29.88F FOG
WAUTOMA        CLOUDY    69  68  97 SE7       29.88F FOG
WISC RAPIDS    HVY RAIN  70  65  84 SW7       29.87S
CAMP DOUGLAS   CLOUDY    72  72 100 VRB1      29.85R
$$

WIZ011>013-019>022-031-037>040-048>050-061400-
NORTHEAST WISCONSIN

CITY           SKY/WX    TMP DP  RH WIND       PRES   REMARKS
ANTIGO         CLOUDY    64  64  97 S8        29.90S FOG
SHAWANO        CLOUDY    70  64  83 S5        29.88F
OCONTO         CLOUDY    70  68  95 S6        29.88F
STURGEON BAY   CLOUDY    68  61  77 S13       29.92F
GREEN BAY      CLOUDY    71  65  81 S8        29.90F HAZE
MANITOWOC      CLOUDY    67  63  87 MISG      29.94F FOG
APPLETON       PTSUNNY   70  63  78 S8        29.91F HAZE
CLINTONVILLE   CLOUDY    68  64  88 S6        29.88F FOG
OSHKOSH        CLOUDY    70  64  81 S14       29.90F HAZE
$$

WIZ032>034-041-042-053>061-061400-
SOUTHWEST WISCONSIN

CITY           SKY/WX    TMP DP  RH WIND       PRES   REMARKS
LA CROSSE      LGT RAIN  72  69  90 SW7       29.85R FOG
SPARTA         CLOUDY    72  65  78 S6        29.86S
VIROQUA        CLOUDY    69  68  95 S13G44    29.88R VSB 1/4
BOSCOBEL       RAIN      73  68  84 S7        29.88R
PRAIRIE DU CHI CLOUDY    73  66  78 S5        29.86R
PLATTEVILLE    CLOUDY    72  69  92 S12       29.90F
$$

WIZ056-057-062-063-064-067-068-061400-
SOUTH CENTRAL WISCONSIN

CITY           SKY/WX    TMP DP  RH WIND       PRES   REMARKS
REEDSBURG      CLOUDY    71  67  87 S9        29.86S
BARABOO/DELLS  CLOUDY    71  65  80 S9        29.88S
LONE ROCK      CLOUDY    73  67  81 SW3       29.89R HAZE
MINERAL POINT  CLOUDY    70  68  94 S9        29.91R FOG
MADISON        CLOUDY    72  65  78 S12       29.89F HAZE
MIDDLETON      CLOUDY    72  67  83 S6        29.90F
WATERTOWN      CLOUDY    69  69 100 S6        29.93S FOG
MONROE         CLOUDY    70  66  88 S13       29.92S FOG
JANESVILLE     CLOUDY    73  66  78 S9        29.92F
$$

WIZ051-052-058>065-066-070>072-061400-
SOUTHEAST WISCONSIN

CITY           SKY/WX    TMP DP  RH WIND       PRES   REMARKS
MILWAUKEE      PTSUNNY   71  63  75 S10       29.96F
WAUKESHA       SUNNY     66  63  88 S6        29.96F FOG
MILWAUKEE/TIMM SUNNY     70  61  73 S9        29.96F
RACINE         PTSUNNY   71  63  75 S8        29.98F HAZE
BURLINGTON     PTSUNNY   68  64  87 SW5       29.96F FOG
KENOSHA        PTSUNNY   71  64  78 S8        29.97F HAZE
FOND DU LAC    CLOUDY    73  66  78 S10       29.92F
SHEBOYGAN      CLOUDY    68  64  87 S8        29.93F FOG
WEST BEND      CLOUDY    68  63  83 S6        29.95S
JUNEAU         CLOUDY    69  65  86 S9        29.94S FOG
$$

LSZ147-162-061400-
LAKE SUPERIOR

STATION/POSITION TIME  TEMP    WIND        PRES    WAVE
                       AIR SEA DIR/SP/G            HT/PER
                 (UTC) (F)     (DEG/KT/KT) (MB)    (FT/S)
W MID LAKE BUOY  1250   51 39  330/ 10/ 10 1011.2R   1
DEVILS ISLAND    1300   61     350/ 14/ 15 1011.3R
PORT WING        1240   64      30/  9/ 14 1011.2R
SAXON HARBOR     1200   66        CALM     1010.5R
$$

LMZ867-665-643>646-061400-
LAKE MICHIGAN

STATION/POSITION TIME  TEMP    WIND        PRES    WAVE
                       AIR SEA DIR/SP/G            HT/PER
                 (UTC) (F)     (DEG/KT/KT) (MB)    (FT/S)
CHAMBERS ISLAND  1200   68     160/  6/ 10 1012.9F
S GREEN BAY BUOY 1300   70 69  170/ 12/ 14 1013.5
N MID LAKE BUOY  1250   58 55  190/ 16/ 17 1013.2F   2/ 4
NORTHPORT PIER   1200   65     160/  7/  9 1013.2F
SISTER BAY       1214   67     180/ 14/ 17   N/A
ALGOMA LAKESHORE 1211             CALM       N/A
KEWAUNEE LAKESHO 1200   60     190/  7/  9 1013.6R
SHEBOYGAN LAKESH 1300   61     170/ 12/ 12 1013.9F
PORT WASHINGTON  1200   64     190/  3/  5 1015.2F
ATWATER BUOY     1300   63 59  150/ 10/ 12 1015.6F
MILWAUKEE LAKESH 1300   64     160/  9/ 10   N/A
KENOSHA   LAKESH 1300   64     170/ 10/ 13 1014.6F
$$

TC  - TEMPERATURE IN CELSIUS
VSB - VISIBILITY IN STATUTE MILES
WCI - WIND CHILL INDEX
HX  - HEAT INDEX




USA.gov is the U.S. government's official web portal to all federal, state and local government web resources and services.